• In Deutschland
  • Länderverzeichnis
  • Für 7 Tage
  • Wassertemperatur
  • Satellitenkarten
  • Wetterkarte
  • Widgets
  • user-avatar
    Anmelden

    Stündliche Wetter Bolgatanga

    Heute, 21 Mai, Montag

    Zeit Temperatur Niederschläge Wind Luftdruck Luftfeuchtigkeit
    00:00 +37°C° 0 mm 3 m/S 740 mmHg 39%
    01:00 +36°C° 0 mm 4 m/S 740 mmHg 41%
    02:00 +35°C° 0 mm 4 m/S 740 mmHg 44%
    03:00 +35°C° 0 mm 4 m/S 740 mmHg 47%
    04:00 +34°C° 0 mm 4 m/S 740 mmHg 50%
    05:00 +34°C° 0 mm 4 m/S 740 mmHg 53%
    06:00 +33°C° 0 mm 4 m/S 740 mmHg 56%
    07:00 +34°C° 0 mm 4 m/S 741 mmHg 54%
    08:00 +35°C° 0 mm 5 m/S 741 mmHg 52%
    09:00 +35°C° 0 mm 5 m/S 741 mmHg 51%
    10:00 +37°C° 0 mm 5 m/S 741 mmHg 46%
    11:00 +38°C° 0 mm 4 m/S 741 mmHg 42%
    12:00 +39°C° 0 mm 5 m/S 741 mmHg 44%
    13:00 +40°C° 0 mm 5 m/S 740 mmHg 41%
    14:00 +41°C° 0 mm 4 m/S 739 mmHg 37%
    15:00 +42°C° 0 mm 3 m/S 739 mmHg 34%
    16:00 +42°C° 0 mm 3 m/S 739 mmHg 34%
    17:00 +40°C° 0 mm 3 m/S 739 mmHg 35%
    18:00 +40°C° 0 mm 2 m/S 738 mmHg 35%
    19:00 +39°C° 0 mm 3 m/S 739 mmHg 37%
    20:00 +38°C° 0 mm 3 m/S 739 mmHg 39%
    21:00 +38°C° 0 mm 4 m/S 739 mmHg 41%
    22:00 +37°C° 0 mm 4 m/S 740 mmHg 43%
    23:00 +36°C° 0 mm 4 m/S 740 mmHg 46%

    Morgen, 22 Mai, Dienstag

    Zeit Temperatur Niederschläge Wind Luftdruck Luftfeuchtigkeit
    00:00 +36°C° 0 mm 5 m/S 740 mmHg 48%
    01:00 +35°C° 0 mm 4 m/S 740 mmHg 50%
    02:00 +35°C° 0 mm 4 m/S 740 mmHg 52%
    03:00 +34°C° 0 mm 4 m/S 740 mmHg 54%
    04:00 +34°C° 0 mm 4 m/S 740 mmHg 55%
    05:00 +33°C° 0 mm 4 m/S 740 mmHg 56%
    06:00 +33°C° 0 mm 4 m/S 740 mmHg 58%
    07:00 +34°C° 0 mm 4 m/S 740 mmHg 55%
    08:00 +35°C° 0 mm 4 m/S 741 mmHg 53%
    09:00 +36°C° 0 mm 5 m/S 741 mmHg 51%
    10:00 +37°C° 0 mm 4 m/S 741 mmHg 47%
    11:00 +38°C° 0 mm 4 m/S 741 mmHg 43%
    12:00 +41°C° 0 mm 4 m/S 741 mmHg 40%
    13:00 +41°C° 0 mm 4 m/S 740 mmHg 38%
    14:00 +42°C° 0 mm 4 m/S 740 mmHg 36%
    15:00 +43°C° 0 mm 3 m/S 739 mmHg 34%
    16:00 +42°C° 0 mm 3 m/S 739 mmHg 34%
    17:00 +42°C° 0 mm 4 m/S 739 mmHg 35%
    18:00 +41°C° 0 mm 4 m/S 739 mmHg 36%
    19:00 +40°C° 0,2 mm 4 m/S 739 mmHg 39%
    20:00 +39°C° 0,2 mm 5 m/S 740 mmHg 42%
    21:00 +37°C° 0,2 mm 5 m/S 741 mmHg 45%
    22:00 +36°C° 0 mm 5 m/S 741 mmHg 47%
    23:00 +36°C° 0 mm 5 m/S 741 mmHg 49%

    übermorgen, 23 Mai, Mittwoch

    Zeit Temperatur Niederschläge Wind Luftdruck Luftfeuchtigkeit
    00:00 +35°C° 0 mm 5 m/S 741 mmHg 50%
    01:00 +35°C° 0,1 mm 5 m/S 741 mmHg 51%
    02:00 +34°C° 0,1 mm 5 m/S 740 mmHg 53%
    03:00 +34°C° 0,1 mm 5 m/S 740 mmHg 54%
    04:00 +33°C° 0 mm 5 m/S 741 mmHg 57%
    05:00 +33°C° 0 mm 5 m/S 741 mmHg 61%
    06:00 +32°C° 0 mm 5 m/S 742 mmHg 64%
    07:00 +32°C° 0 mm 5 m/S 742 mmHg 63%
    08:00 +32°C° 0 mm 4 m/S 743 mmHg 62%
    09:00 +33°C° 0 mm 4 m/S 743 mmHg 61%
    10:00 +34°C° 0 mm 4 m/S 743 mmHg 57%
    11:00 +35°C° 0 mm 4 m/S 742 mmHg 53%
    12:00 +36°C° 0 mm 4 m/S 742 mmHg 50%
    13:00 +37°C° 0 mm 3 m/S 741 mmHg 45%
    14:00 +39°C° 0 mm 3 m/S 740 mmHg 40%
    15:00 +42°C° 0 mm 3 m/S 739 mmHg 35%
    16:00 +40°C° 0 mm 2 m/S 740 mmHg 34%
    17:00 +40°C° 0 mm 2 m/S 740 mmHg 34%
    18:00 +40°C° 0 mm 2 m/S 740 mmHg 34%
    19:00 +39°C° 0 mm 2 m/S 741 mmHg 35%
    20:00 +38°C° 0 mm 2 m/S 741 mmHg 37%
    21:00 +36°C° 0 mm 1 m/S 742 mmHg 38%
    22:00 +37°C° 0 mm 2 m/S 742 mmHg 40%
    23:00 +36°C° 0 mm 2 m/S 742 mmHg 42%

    24 Mai, Donnerstag

    Zeit Temperatur Niederschläge Wind Luftdruck Luftfeuchtigkeit
    00:00 +35°C° 0 mm 2 m/S 742 mmHg 45%
    01:00 +35°C° 0 mm 2 m/S 742 mmHg 47%
    02:00 +34°C° 0 mm 2 m/S 742 mmHg 49%
    03:00 +34°C° 0 mm 2 m/S 741 mmHg 51%
    04:00 +33°C° 0 mm 3 m/S 741 mmHg 54%
    05:00 +32°C° 0 mm 4 m/S 741 mmHg 57%
    06:00 +32°C° 0 mm 4 m/S 741 mmHg 60%
    07:00 +33°C° 0 mm 5 m/S 742 mmHg 58%
    08:00 +34°C° 0 mm 5 m/S 742 mmHg 56%
    09:00 +35°C° 0 mm 5 m/S 743 mmHg 54%
    10:00 +36°C° 0 mm 4 m/S 742 mmHg 49%
    11:00 +38°C° 0 mm 4 m/S 742 mmHg 43%
    12:00 +41°C° 0 mm 4 m/S 741 mmHg 37%
    13:00 +42°C° 0 mm 3 m/S 741 mmHg 34%
    14:00 +43°C° 0 mm 3 m/S 740 mmHg 30%
    15:00 +42°C° 0 mm 2 m/S 739 mmHg 27%
    16:00 +42°C° 0 mm 2 m/S 739 mmHg 28%
    17:00 +41°C° 0 mm 2 m/S 739 mmHg 28%
    18:00 +41°C° 0 mm 2 m/S 739 mmHg 29%
    19:00 +40°C° 0 mm 3 m/S 740 mmHg 31%
    20:00 +39°C° 0 mm 3 m/S 740 mmHg 33%
    21:00 +39°C° 0 mm 3 m/S 741 mmHg 35%
    22:00 +38°C° 0 mm 4 m/S 741 mmHg 37%
    23:00 +37°C° 0 mm 5 m/S 740 mmHg 40%

    25 Mai, Freitag

    Zeit Temperatur Niederschläge Wind Luftdruck Luftfeuchtigkeit
    00:00 +36°C° 0 mm 5 m/S 740 mmHg 42%
    01:00 +36°C° 0 mm 5 m/S 740 mmHg 44%
    02:00 +35°C° 0 mm 5 m/S 740 mmHg 46%
    03:00 +34°C° 0 mm 5 m/S 739 mmHg 49%
    04:00 +34°C° 0 mm 5 m/S 739 mmHg 52%
    05:00 +33°C° 0 mm 5 m/S 740 mmHg 55%
    06:00 +33°C° 0 mm 5 m/S 740 mmHg 58%
    07:00 +33°C° 0 mm 5 m/S 741 mmHg 56%
    08:00 +34°C° 0 mm 5 m/S 741 mmHg 54%
    09:00 +35°C° 0 mm 5 m/S 741 mmHg 52%
    10:00 +37°C° 0 mm 5 m/S 741 mmHg 47%
    11:00 +38°C° 0 mm 4 m/S 741 mmHg 42%
    12:00 +41°C° 0 mm 4 m/S 740 mmHg 37%
    13:00 +42°C° 0 mm 4 m/S 739 mmHg 35%
    14:00 +42°C° 0 mm 3 m/S 739 mmHg 33%
    15:00 +43°C° 0 mm 3 m/S 738 mmHg 31%
    16:00 +43°C° 0 mm 3 m/S 738 mmHg 32%
    17:00 +42°C° 0 mm 3 m/S 738 mmHg 34%
    18:00 +40°C° 0 mm 3 m/S 738 mmHg 35%
    19:00 +40°C° 0,1 mm 4 m/S 738 mmHg 38%
    20:00 +38°C° 0,1 mm 4 m/S 739 mmHg 40%
    21:00 +37°C° 0,1 mm 5 m/S 739 mmHg 43%
    22:00 +37°C° 0,1 mm 5 m/S 739 mmHg 45%
    23:00 +36°C° 0,1 mm 5 m/S 739 mmHg 48%

    26 Mai, Samstag

    Zeit Temperatur Niederschläge Wind Luftdruck Luftfeuchtigkeit
    00:00 +35°C° 0,1 mm 5 m/S 739 mmHg 51%
    01:00 +34°C° 0 mm 5 m/S 738 mmHg 53%
    02:00 +34°C° 0 mm 5 m/S 738 mmHg 56%
    03:00 +33°C° 0 mm 5 m/S 738 mmHg 59%
    04:00 +32°C° 0,3 mm 5 m/S 739 mmHg 63%
    05:00 +30°C° 0,3 mm 5 m/S 740 mmHg 68%
    06:00 +29°C° 0,3 mm 5 m/S 740 mmHg 72%
    07:00 +30°C° 0 mm 5 m/S 741 mmHg 68%
    08:00 +32°C° 0 mm 6 m/S 741 mmHg 64%
    09:00 +33°C° 0 mm 6 m/S 741 mmHg 60%
    10:00 +35°C° 0 mm 6 m/S 741 mmHg 55%
    11:00 +36°C° 0 mm 6 m/S 740 mmHg 50%
    12:00 +39°C° 0 mm 6 m/S 740 mmHg 45%
    13:00 +39°C° 0 mm 6 m/S 739 mmHg 43%
    14:00 +40°C° 0 mm 5 m/S 739 mmHg 40%
    15:00 +41°C° 0 mm 5 m/S 738 mmHg 38%
    16:00 +40°C° 0 mm 5 m/S 738 mmHg 39%
    17:00 +40°C° 0 mm 4 m/S 738 mmHg 40%
    18:00 +40°C° 0 mm 4 m/S 739 mmHg 41%
    19:00 +37°C° 1,1 mm 4 m/S 739 mmHg 46%
    20:00 +36°C° 1,1 mm 4 m/S 740 mmHg 51%
    21:00 +35°C° 1,1 mm 4 m/S 740 mmHg 55%
    22:00 +34°C° 0,4 mm 4 m/S 740 mmHg 58%
    23:00 +33°C° 0,4 mm 5 m/S 740 mmHg 62%
    Mehr zeigen